Private Wetterstation Wechselburg
Wetterdaten: Donnerstag, 23.02.2012
Datum Zeit Temp. +2m Bodentemp. Temp.+5cm Temp. Wind Windchill X Diff Temp. Feuchte +2m Feuchte +5cm Sonnenschein Luftdruck Regen Wind Richtung Richtung Sonnenschein UV Taupunkt Windchill Windben
23.02.2012 00:04 6,0 C 6,3 C 5,6 C 5,6 C 3,8 C 0,0 C 68 % 72 % 0 % 1022,8 hPa 0,0 l/m 10,3 km/h (2 Bft) W-SW 247 0 min 0,0 UV-I 0,6 C 1,2 C 14,2 km/h (3 Bft)
23.02.2012 00:09 6,0 C 6,3 C 5,6 C 5,5 C 3,5 C 0,0 C 68 % 72 % 0 % 1022,8 hPa 0,0 l/m 11,7 km/h (2 Bft) W-SW 247 0 min 0,0 UV-I 0,6 C 0,5 C 16,7 km/h (3 Bft)
23.02.2012 00:14 6,1 C 6,3 C 5,6 C 5,5 C 3,6 C 0,0 C 67 % 71 % 0 % 1022,8 hPa 0,0 l/m 11,1 km/h (2 Bft) W-SW 247 0 min 0,0 UV-I 0,4 C 0,7 C 19,2 km/h (3 Bft)
23.02.2012 00:19 6,0 C 6,3 C 5,7 C 5,5 C 3,9 C 0,0 C 67 % 70 % 0 % 1022,3 hPa 0,0 l/m 9,5 km/h (2 Bft) SO 135 0 min 0,0 UV-I 0,3 C 1,5 C 7,7 km/h (2 Bft)
23.02.2012 00:24 6,1 C 6,3 C 5,7 C 5,6 C 4,2 C 0,0 C 67 % 70 % 0 % 1022,3 hPa 0,0 l/m 8,5 km/h (2 Bft) SO 135 0 min 0,0 UV-I 0,4 C 2,1 C 18,3 km/h (3 Bft)
23.02.2012 00:29 6,0 C 6,3 C 5,6 C 5,6 C 4,1 C 0,0 C 66 % 69 % 0 % 1022,3 hPa 0,0 l/m 9,0 km/h (2 Bft) W 270 0 min 0,0 UV-I 0,1 C 1,8 C 14,6 km/h (3 Bft)
23.02.2012 00:34 6,1 C 6,2 C 5,7 C 5,4 C 4,1 C 0,0 C 66 % 69 % 0 % 1022,3 hPa 0,0 l/m 9,0 km/h (2 Bft) N-NO 22 0 min 0,0 UV-I 0,2 C 1,8 C 23,5 km/h (4 Bft)
23.02.2012 00:39 6,0 C 6,2 C 5,7 C 5,6 C 4,2 C 0,0 C 65 % 68 % 0 % 1022,3 hPa 0,0 l/m 8,4 km/h (2 Bft) SO 135 0 min 0,0 UV-I -0,1 C 2,1 C 9,2 km/h (2 Bft)
23.02.2012 00:44 6,0 C 6,2 C 5,7 C 5,4 C 4,2 C 0,0 C 64 % 68 % 0 % 1022,3 hPa 0,0 l/m 8,4 km/h (2 Bft) N-NW 337 0 min 0,0 UV-I -0,3 C 2,1 C 6,6 km/h (2 Bft)
23.02.2012 00:49 6,1 C 6,2 C 5,7 C 5,5 C 4,2 C 0,0 C 64 % 67 % 0 % 1022,3 hPa 0,0 l/m 8,7 km/h (2 Bft) NO 45 0 min 0,0 UV-I -0,2 C 2,0 C 14,3 km/h (3 Bft)
23.02.2012 00:54 6,1 C 6,2 C 5,7 C 5,5 C 4,2 C 0,0 C 63 % 66 % 0 % 1022,3 hPa 0,0 l/m 8,4 km/h (2 Bft) NW 315 0 min 0,0 UV-I -0,4 C 2,1 C 6,3 km/h (2 Bft)
23.02.2012 00:59 6,1 C 6,2 C 5,8 C 5,6 C 4,6 C 0,0 C 63 % 66 % 0 % 1022,3 hPa 0,0 l/m 7,1 km/h (2 Bft) SW 225 0 min 0,0 UV-I -0,4 C 2,9 C 6,8 km/h (2 Bft)
23.02.2012 01:04 6,0 C 6,2 C 5,7 C 5,5 C 4,6 C 0,0 C 63 % 66 % 0 % 1022,3 hPa 0,0 l/m 6,8 km/h (2 Bft) S 180 0 min 0,0 UV-I -0,5 C 3,0 C 11,6 km/h (2 Bft)
23.02.2012 01:09 6,1 C 6,2 C 5,7 C 5,7 C 4,3 C 0,0 C 62 % 66 % 0 % 1022,3 hPa 0,0 l/m 7,7 km/h (2 Bft) SW 225 0 min 0,0 UV-I -0,6 C 2,4 C 12,4 km/h (3 Bft)
23.02.2012 01:14 6,0 C 6,2 C 5,7 C 5,4 C 4,3 C 0,0 C 62 % 66 % 0 % 1022,3 hPa 0,0 l/m 8,2 km/h (2 Bft) W 270 0 min 0,0 UV-I -0,7 C 2,3 C 4,8 km/h (1 Bft)
23.02.2012 01:19 6,1 C 6,2 C 5,7 C 5,7 C 4,4 C 0,0 C 62 % 65 % 0 % 1021,4 hPa 0,0 l/m 8,7 km/h (2 Bft) W 270 0 min 0,0 UV-I -0,6 C 2,2 C 6,1 km/h (2 Bft)
23.02.2012 01:24 6,1 C 6,2 C 5,7 C 5,8 C 4,6 C 0,0 C 61 % 65 % 0 % 1021,4 hPa 0,0 l/m 7,9 km/h (2 Bft) O-NO 67 0 min 0,0 UV-I -0,8 C 2,7 C 6,0 km/h (2 Bft)
23.02.2012 01:29 6,1 C 6,2 C 5,9 C 5,7 C 4,8 C 0,0 C 61 % 64 % 0 % 1021,4 hPa 0,0 l/m 7,1 km/h (2 Bft) N-NO 22 0 min 0,0 UV-I -0,8 C 3,1 C 7,2 km/h (2 Bft)
23.02.2012 01:34 6,2 C 6,2 C 5,8 C 5,9 C 4,6 C 0,0 C 60 % 63 % 0 % 1021,4 hPa 0,0 l/m 7,9 km/h (2 Bft) W-NW 292 0 min 0,0 UV-I -1,0 C 2,7 C 12,4 km/h (3 Bft)
23.02.2012 01:39 6,1 C 6,2 C 5,8 C 5,6 C 4,6 C 0,0 C 60 % 63 % 0 % 1021,2 hPa 0,0 l/m 8,4 km/h (2 Bft) W-NW 292 0 min 0,0 UV-I -1,1 C 2,6 C 12,6 km/h (3 Bft)
23.02.2012 01:44 6,1 C 6,2 C 5,9 C 5,8 C 4,5 C 0,0 C 59 % 63 % 0 % 1021,2 hPa 0,0 l/m 8,5 km/h (2 Bft) NW 315 0 min 0,0 UV-I -1,3 C 2,4 C 13,4 km/h (3 Bft)
23.02.2012 01:49 6,2 C 6,2 C 5,8 C 5,8 C 4,3 C 0,0 C 59 % 62 % 0 % 1021,2 hPa 0,0 l/m 9,3 km/h (2 Bft) SW 225 0 min 0,0 UV-I -1,2 C 2,0 C 12,6 km/h (3 Bft)
23.02.2012 01:54 6,3 C 6,2 C 5,9 C 5,9 C 4,4 C 0,0 C 58 % 61 % 0 % 1021,2 hPa 0,0 l/m 9,2 km/h (2 Bft) O 90 0 min 0,0 UV-I -1,3 C 2,1 C 15,6 km/h (3 Bft)
23.02.2012 01:59 6,3 C 6,0 C 5,9 C 5,7 C 4,4 C 0,0 C 58 % 60 % 0 % 1020,4 hPa 0,0 l/m 9,2 km/h (2 Bft) N-NO 22 0 min 0,0 UV-I -1,3 C 2,1 C 9,5 km/h (2 Bft)
23.02.2012 02:04 6,3 C 6,0 C 6,0 C 5,9 C 4,2 C 0,0 C 57 % 60 % 0 % 1020,4 hPa 0,0 l/m 10,1 km/h (2 Bft) SW 225 0 min 0,0 UV-I -1,6 C 1,7 C 19,8 km/h (3 Bft)
23.02.2012 02:09 6,3 C 6,0 C 5,9 C 5,6 C 4,2 C 0,0 C 57 % 59 % 0 % 1020,4 hPa 0,0 l/m 9,8 km/h (2 Bft) O 90 0 min 0,0 UV-I -1,6 C 1,7 C 9,0 km/h (2 Bft)
23.02.2012 02:14 6,3 C 6,0 C 5,9 C 5,9 C 4,3 C 0,0 C 56 % 59 % 0 % 1020,4 hPa 0,0 l/m 10,3 km/h (2 Bft) SW 225 0 min 0,0 UV-I -1,8 C 1,8 C 20,1 km/h (4 Bft)
23.02.2012 02:19 6,2 C 6,0 C 5,8 C 5,8 C 4,4 C 0,0 C 57 % 60 % 0 % 1020,7 hPa 0,0 l/m 9,7 km/h (2 Bft) N 360 0 min 0,0 UV-I -1,7 C 2,0 C 8,5 km/h (2 Bft)
23.02.2012 02:24 6,3 C 6,0 C 5,9 C 5,9 C 4,6 C 0,0 C 57 % 60 % 0 % 1020,7 hPa 0,0 l/m 9,0 km/h (2 Bft) S 180 0 min 0,0 UV-I -1,6 C 2,4 C 23,2 km/h (4 Bft)
23.02.2012 02:29 6,3 C 6,0 C 5,9 C 5,9 C 4,5 C 0,0 C 56 % 59 % 0 % 1020,7 hPa 0,0 l/m 8,7 km/h (2 Bft) N-NW 337 0 min 0,0 UV-I -1,8 C 2,4 C 5,5 km/h (1 Bft)
23.02.2012 02:34 6,1 C 6,0 C 5,9 C 5,8 C 4,4 C 0,0 C 56 % 59 % 0 % 1020,7 hPa 0,0 l/m 9,2 km/h (2 Bft) W 270 0 min 0,0 UV-I -2,0 C 2,1 C 14,0 km/h (3 Bft)
23.02.2012 02:39 6,1 C 6,0 C 5,9 C 5,8 C 4,5 C 0,0 C 56 % 59 % 0 % 1020,9 hPa 0,0 l/m 8,5 km/h (2 Bft) SO 135 0 min 0,0 UV-I -2,0 C 2,4 C 9,7 km/h (2 Bft)
23.02.2012 02:44 6,0 C 6,0 C 5,8 C 5,7 C 4,6 C 0,0 C 56 % 59 % 0 % 1020,9 hPa 0,0 l/m 7,9 km/h (2 Bft) SO 135 0 min 0,0 UV-I -2,1 C 2,7 C 24,0 km/h (4 Bft)
23.02.2012 02:49 6,0 C 6,0 C 5,7 C 5,5 C 4,6 C 0,0 C 56 % 60 % 0 % 1020,9 hPa 0,0 l/m 8,2 km/h (2 Bft) W 270 0 min 0,0 UV-I -2,1 C 2,6 C 15,3 km/h (3 Bft)
23.02.2012 02:54 6,0 C 6,0 C 5,8 C 5,7 C 4,5 C 0,0 C 55 % 59 % 0 % 1020,9 hPa 0,0 l/m 8,5 km/h (2 Bft) W-SW 247 0 min 0,0 UV-I -2,3 C 2,4 C 7,6 km/h (2 Bft)
23.02.2012 02:59 6,0 C 6,0 C 5,8 C 5,7 C 4,6 C 0,0 C 56 % 58 % 0 % 1020,2 hPa 0,0 l/m 8,4 km/h (2 Bft) NW 315 0 min 0,0 UV-I -2,1 C 2,6 C 6,1 km/h (2 Bft)
23.02.2012 03:04 6,0 C 6,0 C 5,9 C 5,6 C 4,8 C 0,0 C 55 % 58 % 0 % 1020,2 hPa 0,0 l/m 7,2 km/h (2 Bft) SW 225 0 min 0,0 UV-I -2,3 C 3,1 C 9,3 km/h (2 Bft)
23.02.2012 03:09 6,1 C 6,0 C 5,9 C 5,7 C 4,9 C 0,0 C 55 % 58 % 0 % 1020,2 hPa 0,0 l/m 6,9 km/h (2 Bft) W 270 0 min 0,0 UV-I -2,2 C 3,3 C 6,6 km/h (2 Bft)
23.02.2012 03:14 6,1 C 6,0 C 5,9 C 5,8 C 4,6 C 0,0 C 55 % 58 % 0 % 1020,2 hPa 0,0 l/m 8,2 km/h (2 Bft) N 360 0 min 0,0 UV-I -2,2 C 2,6 C 12,1 km/h (2 Bft)
23.02.2012 03:19 6,1 C 6,0 C 5,9 C 5,8 C 4,4 C 0,0 C 54 % 58 % 0 % 1020,2 hPa 0,0 l/m 8,5 km/h (2 Bft) S 180 0 min 0,0 UV-I -2,5 C 2,3 C 10,9 km/h (2 Bft)
23.02.2012 03:24 6,1 C 6,0 C 5,9 C 5,5 C 4,4 C 0,0 C 53 % 57 % 0 % 1020,2 hPa 0,0 l/m 8,9 km/h (2 Bft) S 180 0 min 0,0 UV-I -2,7 C 2,2 C 15,0 km/h (3 Bft)
23.02.2012 03:29 6,1 C 6,0 C 5,8 C 5,8 C 4,6 C 0,0 C 54 % 58 % 0 % 1020,2 hPa 0,0 l/m 8,4 km/h (2 Bft) N 360 0 min 0,0 UV-I -2,5 C 2,6 C 11,7 km/h (2 Bft)
23.02.2012 03:34 6,0 C 6,0 C 5,7 C 5,6 C 4,2 C 0,0 C 56 % 60 % 0 % 1020,2 hPa 0,0 l/m 7,9 km/h (2 Bft) NW 315 0 min 0,0 UV-I -2,1 C 2,2 C 7,6 km/h (2 Bft)
23.02.2012 03:39 5,9 C 6,0 C 5,5 C 5,2 C 3,7 C 0,0 C 56 % 60 % 0 % 1020,1 hPa 0,0 l/m 7,6 km/h (2 Bft) W 270 0 min 0,0 UV-I -2,2 C 1,7 C 9,7 km/h (2 Bft)
23.02.2012 03:44 5,9 C 6,1 C 5,5 C 5,1 C 3,5 C 0,0 C 58 % 62 % 0 % 1020,1 hPa 0,0 l/m 7,6 km/h (2 Bft) W-NW 292 0 min 0,0 UV-I -1,7 C 1,5 C 10,3 km/h (2 Bft)
23.02.2012 03:49 5,7 C 6,1 C 5,2 C 5,0 C 2,9 C 0,0 C 58 % 65 % 0 % 1020,1 hPa 0,0 l/m 7,7 km/h (2 Bft) SW 225 0 min 0,0 UV-I -1,9 C 0,8 C 18,0 km/h (3 Bft)
23.02.2012 03:54 5,6 C 6,1 C 4,7 C 4,7 C 2,9 C 0,0 C 58 % 67 % 0 % 1020,1 hPa 0,0 l/m 7,2 km/h (2 Bft) SO 135 0 min 0,0 UV-I -2,0 C 0,9 C 5,6 km/h (1 Bft)
23.02.2012 03:59 5,7 C 6,1 C 4,5 C 4,7 C 2,8 C 0,0 C 58 % 68 % 0 % 1019,6 hPa 0,0 l/m 6,6 km/h (2 Bft) W-NW 292 0 min 0,0 UV-I -1,9 C 1,0 C 9,3 km/h (2 Bft)
23.02.2012 04:04 5,6 C 6,1 C 4,7 C 4,8 C 3,1 C 0,0 C 58 % 66 % 0 % 1019,6 hPa 0,0 l/m 6,4 km/h (2 Bft) W 270 0 min 0,0 UV-I -2,0 C 1,4 C 6,8 km/h (2 Bft)
23.02.2012 04:09 5,7 C 6,1 C 4,9 C 4,9 C 3,2 C 0,0 C 58 % 64 % 0 % 1019,6 hPa 0,0 l/m 6,6 km/h (2 Bft) S-SO 157 0 min 0,0 UV-I -1,9 C 1,4 C 8,4 km/h (2 Bft)
23.02.2012 04:14 5,6 C 6,1 C 4,9 C 4,8 C 3,2 C 0,0 C 58 % 64 % 0 % 1019,6 hPa 0,0 l/m 6,6 km/h (2 Bft) N-NW 337 0 min 0,0 UV-I -2,0 C 1,4 C 10,9 km/h (2 Bft)
23.02.2012 04:19 5,5 C 6,1 C 4,8 C 4,7 C 3,0 C 0,0 C 59 % 66 % 0 % 1019,9 hPa 0,0 l/m 6,4 km/h (2 Bft) SW 225 0 min 0,0 UV-I -1,9 C 1,3 C 7,6 km/h (2 Bft)
23.02.2012 04:24 5,5 C 6,1 C 4,3 C 4,5 C 2,4 C 0,0 C 60 % 73 % 0 % 1019,9 hPa 0,7 l/m 6,3 km/h (2 Bft) W-SW 247 0 min 0,0 UV-I -1,6 C 0,6 C 5,3 km/h (1 Bft)
23.02.2012 04:29 5,2 C 6,1 C 3,9 C 4,2 C 2,1 C 0,0 C 62 % 75 % 0 % 1019,9 hPa 0,0 l/m 6,8 km/h (2 Bft) W 270 0 min 0,0 UV-I -1,5 C 0,1 C 7,7 km/h (2 Bft)
23.02.2012 04:34 5,1 C 6,1 C 3,6 C 3,9 C 1,4 C 0,0 C 64 % 80 % 0 % 1019,9 hPa 0,0 l/m 7,6 km/h (2 Bft) O 90 0 min 0,0 UV-I -1,1 C -1,0 C 13,2 km/h (3 Bft)
23.02.2012 04:39 4,8 C 6,1 C 3,4 C 3,7 C 1,4 C 0,0 C 65 % 82 % 0 % 1019,9 hPa 0,0 l/m 7,4 km/h (2 Bft) SO 135 0 min 0,0 UV-I -1,2 C -0,9 C 6,8 km/h (2 Bft)
23.02.2012 04:44 4,7 C 6,2 C 3,1 C 3,5 C 1,2 C 0,0 C 67 % 84 % 0 % 1019,9 hPa 0,0 l/m 6,4 km/h (2 Bft) S 180 0 min 0,0 UV-I -0,9 C -0,8 C 8,7 km/h (2 Bft)
23.02.2012 05:05 4,2 C 6,2 C 2,8 C 3,4 C 1,9 C 0,0 C 70 % 87 % 0 % 1020,4 hPa 0,0 l/m 5,1 km/h (1 Bft) W-SW 247 0 min 0,0 UV-I -0,8 C 0,5 C 9,5 km/h (2 Bft)
23.02.2012 05:10 4,3 C 6,2 C 2,9 C 3,5 C 1,8 C 0,0 C 70 % 87 % 0 % 1020,4 hPa 0,0 l/m 5,3 km/h (1 Bft) W 270 0 min 0,0 UV-I -0,7 C 0,3 C 5,5 km/h (1 Bft)
23.02.2012 05:14 4,3 C 6,1 C 2,8 C 3,4 C 1,6 C 0,0 C 69 % 87 % 0 % 1020,4 hPa 0,0 l/m 6,3 km/h (2 Bft) SW 225 0 min 0,0 UV-I -0,9 C -0,3 C 8,5 km/h (2 Bft)
23.02.2012 05:19 4,3 C 6,1 C 2,9 C 3,6 C 1,2 C 0,0 C 68 % 87 % 0 % 1020,1 hPa 0,0 l/m 8,5 km/h (2 Bft) W-SW 247 0 min 0,0 UV-I -1,1 C -1,5 C 13,5 km/h (3 Bft)
23.02.2012 05:24 4,4 C 6,1 C 3,1 C 3,7 C 1,5 C 0,0 C 68 % 87 % 0 % 1020,1 hPa 0,0 l/m 8,9 km/h (2 Bft) W-SW 247 0 min 0,0 UV-I -1,0 C -1,2 C 10,8 km/h (2 Bft)
23.02.2012 05:29 4,3 C 6,1 C 3,1 C 3,7 C 2,0 C 0,0 C 67 % 87 % 0 % 1020,1 hPa 0,0 l/m 7,7 km/h (2 Bft) W 270 0 min 0,0 UV-I -1,3 C -0,3 C 9,3 km/h (2 Bft)
23.02.2012 05:34 4,4 C 6,1 C 3,1 C 3,7 C 2,4 C 0,0 C 67 % 87 % 0 % 1020,1 hPa 0,0 l/m 6,8 km/h (2 Bft) SW 225 0 min 0,0 UV-I -1,2 C 0,5 C 11,1 km/h (2 Bft)
23.02.2012 05:39 4,5 C 6,1 C 3,2 C 3,8 C 2,5 C 0,0 C 67 % 87 % 0 % 1020,1 hPa 0,0 l/m 7,2 km/h (2 Bft) SW 225 0 min 0,0 UV-I -1,1 C 0,4 C 7,4 km/h (2 Bft)
23.02.2012 05:44 4,4 C 6,1 C 3,2 C 3,9 C 2,3 C 0,0 C 66 % 85 % 0 % 1020,1 hPa 0,0 l/m 7,9 km/h (2 Bft) W 270 0 min 0,0 UV-I -1,4 C -0,0 C 10,3 km/h (2 Bft)
23.02.2012 05:49 4,5 C 6,1 C 3,3 C 3,8 C 2,3 C 0,0 C 66 % 86 % 0 % 1020,1 hPa 0,0 l/m 8,4 km/h (2 Bft) W 270 0 min 0,0 UV-I -1,3 C -0,2 C 13,5 km/h (3 Bft)
23.02.2012 05:54 4,5 C 6,1 C 3,4 C 4,0 C 2,1 C 0,0 C 67 % 86 % 0 % 1020,1 hPa 0,0 l/m 8,9 km/h (2 Bft) W 270 0 min 0,0 UV-I -1,1 C -0,5 C 12,4 km/h (3 Bft)
23.02.2012 05:59 4,5 C 6,1 C 3,3 C 3,8 C 1,5 C 0,0 C 67 % 86 % 0 % 1020,1 hPa 0,0 l/m 9,8 km/h (2 Bft) S 180 0 min 0,0 UV-I -1,1 C -1,5 C 11,3 km/h (2 Bft)
23.02.2012 06:04 4,5 C 6,1 C 3,5 C 3,5 C 1,5 C 0,0 C 67 % 85 % 0 % 1020,1 hPa 0,0 l/m 9,8 km/h (2 Bft) N-NW 337 0 min 0,0 UV-I -1,1 C -1,5 C 10,3 km/h (2 Bft)
23.02.2012 06:09 4,5 C 6,1 C 3,5 C 3,8 C 1,4 C 0,0 C 68 % 86 % 0 % 1020,1 hPa 0,0 l/m 10,1 km/h (2 Bft) SW 225 0 min 0,0 UV-I -0,9 C -1,7 C 10,6 km/h (2 Bft)
23.02.2012 06:14 4,4 C 6,1 C 3,5 C 3,4 C 1,4 C 0,0 C 69 % 86 % 0 % 1020,1 hPa 0,0 l/m 9,8 km/h (2 Bft) O 90 0 min 0,0 UV-I -0,8 C -1,6 C 6,3 km/h (2 Bft)
23.02.2012 06:19 4,3 C 6,1 C 3,5 C 3,6 C 1,7 C 0,0 C 70 % 86 % 0 % 1020,5 hPa 0,0 l/m 8,2 km/h (2 Bft) S-SO 157 0 min 0,0 UV-I -0,7 C -0,8 C 8,9 km/h (2 Bft)
23.02.2012 06:24 4,3 C 6,0 C 3,4 C 3,6 C 2,1 C 0,0 C 70 % 85 % 0 % 1020,5 hPa 0,0 l/m 6,8 km/h (2 Bft) S 180 0 min 0,0 UV-I -0,7 C 0,1 C 10,8 km/h (2 Bft)
23.02.2012 06:29 4,4 C 6,0 C 3,4 C 3,6 C 2,1 C 0,0 C 69 % 86 % 0 % 1020,5 hPa 0,0 l/m 6,6 km/h (2 Bft) S 180 0 min 0,0 UV-I -0,8 C 0,2 C 7,9 km/h (2 Bft)
23.02.2012 06:34 4,4 C 6,0 C 3,5 C 3,7 C 2,3 C 0,0 C 68 % 85 % 0 % 1020,5 hPa 0,0 l/m 6,4 km/h (2 Bft) SW 225 0 min 0,0 UV-I -1,0 C 0,5 C 8,9 km/h (2 Bft)
23.02.2012 06:39 4,4 C 6,0 C 3,7 C 3,7 C 2,2 C 0,0 C 68 % 85 % 0 % 1019,6 hPa 0,0 l/m 7,6 km/h (2 Bft) SW 225 0 min 0,0 UV-I -1,0 C -0,0 C 7,1 km/h (2 Bft)
23.02.2012 06:44 4,4 C 6,0 C 3,7 C 3,8 C 1,9 C 0,0 C 69 % 85 % 0 % 1019,6 hPa 0,0 l/m 7,9 km/h (2 Bft) W-SW 247 0 min 0,0 UV-I -0,8 C -0,5 C 7,4 km/h (2 Bft)
23.02.2012 06:49 4,4 C 6,0 C 3,6 C 3,6 C 1,9 C 0,0 C 69 % 84 % 0 % 1019,6 hPa 0,0 l/m 7,9 km/h (2 Bft) W-SW 247 0 min 0,0 UV-I -0,8 C -0,5 C 10,1 km/h (2 Bft)
23.02.2012 06:54 4,5 C 6,0 C 3,7 C 3,9 C 1,8 C 0,0 C 70 % 85 % 0 % 1019,6 hPa 0,0 l/m 9,2 km/h (2 Bft) W-SW 247 0 min 0,0 UV-I -0,5 C -1,0 C 17,4 km/h (3 Bft)
23.02.2012 06:59 4,5 C 6,0 C 3,7 C 3,9 C 2,0 C 0,0 C 70 % 85 % 0 % 1019,6 hPa 0,0 l/m 9,2 km/h (2 Bft) W-SW 247 0 min 0,0 UV-I -0,5 C -0,7 C 22,7 km/h (4 Bft)
23.02.2012 07:04 4,5 C 6,1 C 3,7 C 3,9 C 1,8 C 0,0 C 72 % 86 % 0 % 1019,6 hPa 0,0 l/m 9,8 km/h (2 Bft) W 270 0 min 0,0 UV-I -0,1 C -1,1 C 16,3 km/h (3 Bft)
23.02.2012 07:09 4,5 C 6,0 C 3,7 C 3,8 C 1,3 C 0,0 C 72 % 86 % 0 % 1019,6 hPa 0,0 l/m 10,5 km/h (2 Bft) N-NW 337 0 min 0,0 UV-I -0,1 C -1,9 C 7,7 km/h (2 Bft)
23.02.2012 07:14 4,5 C 6,0 C 3,7 C 3,7 C 1,2 C 0,0 C 73 % 87 % 0 % 1019,6 hPa 0,0 l/m 11,3 km/h (2 Bft) W-SW 247 0 min 0,0 UV-I 0,1 C -2,2 C 16,1 km/h (3 Bft)
23.02.2012 07:19 4,7 C 6,0 C 3,9 C 3,9 C 1,6 C 0,0 C 73 % 87 % 0 % 1019,6 hPa 0,0 l/m 11,7 km/h (2 Bft) SO 135 0 min 0,0 UV-I 0,3 C -1,8 C 10,8 km/h (2 Bft)
23.02.2012 07:24 4,7 C 6,0 C 4,1 C 4,1 C 2,2 C 0,0 C 72 % 86 % 0 % 1019,6 hPa 0,0 l/m 10,8 km/h (2 Bft) W-SW 247 0 min 0,0 UV-I 0,1 C -0,9 C 18,2 km/h (3 Bft)
23.02.2012 07:29 4,9 C 6,0 C 4,1 C 4,3 C 2,4 C 0,0 C 72 % 86 % 0 % 1019,6 hPa 0,0 l/m 10,6 km/h (2 Bft) W 270 0 min 0,0 UV-I 0,3 C -0,6 C 12,6 km/h (3 Bft)
23.02.2012 07:34 4,9 C 6,0 C 4,1 C 4,4 C 2,6 C 0,0 C 72 % 86 % 0 % 1019,6 hPa 0,0 l/m 11,7 km/h (2 Bft) W-SW 247 0 min 0,0 UV-I 0,3 C -0,6 C 8,4 km/h (2 Bft)
23.02.2012 07:39 5,0 C 6,0 C 4,3 C 4,5 C 2,5 C 0,0 C 72 % 86 % 0 % 1019,8 hPa 0,0 l/m 12,6 km/h (3 Bft) W-SW 247 0 min 0,0 UV-I 0,4 C -0,9 C 16,3 km/h (3 Bft)
23.02.2012 07:44 5,1 C 6,0 C 4,3 C 4,6 C 2,7 C 0,0 C 73 % 86 % 0 % 1019,8 hPa 0,0 l/m 11,9 km/h (2 Bft) W-SW 247 0 min 0,0 UV-I 0,7 C -0,5 C 17,9 km/h (3 Bft)
23.02.2012 07:49 5,1 C 6,1 C 4,4 C 4,6 C 2,5 C 0,0 C 74 % 87 % 0 % 1019,8 hPa 0,0 l/m 12,6 km/h (3 Bft) W-SW 247 0 min 0,0 UV-I 0,9 C -0,9 C 17,1 km/h (3 Bft)
23.02.2012 07:54 4,9 C 6,1 C 4,3 C 4,3 C 2,1 C 0,0 C 75 % 87 % 0 % 1019,8 hPa 0,0 l/m 13,0 km/h (3 Bft) W-SW 247 0 min 0,0 UV-I 0,8 C -1,5 C 17,4 km/h (3 Bft)
23.02.2012 07:59 4,8 C 6,1 C 4,3 C 4,1 C 1,4 C 0,0 C 76 % 87 % 0 % 1020,0 hPa 0,0 l/m 13,0 km/h (3 Bft) W-NW 292 0 min 0,0 UV-I 0,9 C -2,3 C 14,3 km/h (3 Bft)
23.02.2012 08:04 4,7 C 6,1 C 4,3 C 3,9 C 1,1 C 0,0 C 77 % 87 % 0 % 1020,0 hPa 0,0 l/m 13,4 km/h (3 Bft) SW 225 0 min 0,0 UV-I 1,0 C -2,8 C 17,5 km/h (3 Bft)
23.02.2012 08:09 4,6 C 6,1 C 4,1 C 3,4 C 1,1 C 0,0 C 78 % 88 % 0 % 1020,0 hPa 0,0 l/m 13,4 km/h (3 Bft) S 180 0 min 0,0 UV-I 1,1 C -2,8 C 6,9 km/h (2 Bft)
23.02.2012 08:14 4,7 C 6,1 C 4,3 C 3,9 C 1,2 C 0,0 C 77 % 88 % 0 % 1020,0 hPa 0,0 l/m 12,7 km/h (3 Bft) W-SW 247 0 min 0,0 UV-I 1,0 C -2,5 C 16,6 km/h (3 Bft)
23.02.2012 08:19 4,8 C 6,1 C 4,2 C 4,0 C 1,7 C 0,0 C 76 % 88 % 0 % 1020,0 hPa 0,0 l/m 12,9 km/h (3 Bft) SW 225 0 min 0,0 UV-I 0,9 C -1,9 C 17,9 km/h (3 Bft)
23.02.2012 08:24 4,8 C 6,0 C 4,4 C 4,2 C 2,0 C 0,0 C 75 % 87 % 0 % 1020,0 hPa 0,0 l/m 13,2 km/h (3 Bft) SW 225 0 min 0,0 UV-I 0,8 C -1,6 C 15,1 km/h (3 Bft)
23.02.2012 08:29 4,9 C 6,0 C 4,4 C 4,3 C 2,3 C 0,0 C 75 % 87 % 0 % 1020,0 hPa 0,0 l/m 13,2 km/h (3 Bft) W 270 0 min 0,0 UV-I 0,8 C -1,3 C 15,3 km/h (3 Bft)
23.02.2012 08:34 5,0 C 6,0 C 4,5 C 4,4 C 2,2 C 0,0 C 74 % 87 % 0 % 1020,0 hPa 0,0 l/m 13,5 km/h (3 Bft) SW 225 0 min 0,0 UV-I 0,8 C -1,4 C 18,5 km/h (3 Bft)
23.02.2012 08:39 5,1 C 6,0 C 4,4 C 4,5 C 2,1 C 0,0 C 75 % 86 % 0 % 1020,6 hPa 0,0 l/m 15,1 km/h (3 Bft) W 270 0 min 0,0 UV-I 1,0 C -1,8 C 16,4 km/h (3 Bft)
23.02.2012 08:44 5,1 C 6,1 C 4,4 C 4,4 C 2,0 C 0,0 C 75 % 86 % 0 % 1020,6 hPa 0,0 l/m 15,1 km/h (3 Bft) SW 225 0 min 0,0 UV-I 1,0 C -2,0 C 17,2 km/h (3 Bft)
23.02.2012 08:49 5,1 C 6,1 C 4,5 C 4,4 C 1,8 C 0,0 C 75 % 86 % 0 % 1020,6 hPa 0,0 l/m 15,8 km/h (3 Bft) W-SW 247 0 min 0,0 UV-I 1,0 C -2,3 C 21,2 km/h (4 Bft)
23.02.2012 08:54 4,9 C 6,1 C 4,4 C 4,2 C 1,7 C 0,0 C 76 % 86 % 0 % 1020,6 hPa 0,0 l/m 15,0 km/h (3 Bft) O-NO 67 0 min 0,0 UV-I 1,0 C -2,3 C 8,9 km/h (2 Bft)
23.02.2012 08:59 4,9 C 6,1 C 4,5 C 4,2 C 1,6 C 0,0 C 77 % 85 % 0 % 1020,5 hPa 0,0 l/m 14,3 km/h (3 Bft) W-SW 247 0 min 0,0 UV-I 1,2 C -2,3 C 16,6 km/h (3 Bft)
23.02.2012 09:04 4,9 C 6,1 C 4,5 C 4,2 C 1,7 C 0,0 C 77 % 86 % 0 % 1020,5 hPa 0,0 l/m 13,4 km/h (3 Bft) SW 225 0 min 0,0 UV-I 1,2 C -2,0 C 16,3 km/h (3 Bft)
23.02.2012 09:09 4,8 C 6,1 C 4,4 C 4,1 C 1,8 C 0,0 C 77 % 85 % 0 % 1020,5 hPa 0,0 l/m 12,7 km/h (3 Bft) SW 225 0 min 0,0 UV-I 1,1 C -1,8 C 14,5 km/h (3 Bft)
23.02.2012 09:14 4,9 C 6,1 C 4,5 C 4,2 C 1,9 C 0,0 C 77 % 84 % 0 % 1020,5 hPa 0,0 l/m 12,2 km/h (2 Bft) SW 225 0 min 0,0 UV-I 1,2 C -1,5 C 12,4 km/h (3 Bft)
23.02.2012 09:19 4,9 C 6,1 C 4,7 C 4,3 C 2,2 C 0,0 C 77 % 85 % 0 % 1020,2 hPa 0,0 l/m 12,9 km/h (3 Bft) SW 225 0 min 0,0 UV-I 1,2 C -1,3 C 23,2 km/h (4 Bft)
23.02.2012 09:24 5,0 C 6,1 C 4,6 C 4,4 C 2,4 C 0,0 C 77 % 84 % 0 % 1020,2 hPa 0,0 l/m 12,9 km/h (3 Bft) W-SW 247 0 min 0,0 UV-I 1,3 C -1,1 C 16,1 km/h (3 Bft)
23.02.2012 09:29 5,0 C 6,1 C 4,6 C 4,5 C 2,7 C 0,0 C 77 % 84 % 0 % 1020,2 hPa 0,0 l/m 12,4 km/h (3 Bft) W-SW 247 0 min 0,0 UV-I 1,3 C -0,6 C 7,9 km/h (2 Bft)
23.02.2012 09:34 5,1 C 6,1 C 4,7 C 4,3 C 2,7 C 0,0 C 76 % 83 % 0 % 1020,2 hPa 0,0 l/m 12,9 km/h (3 Bft) O-SO 112 0 min 0,0 UV-I 1,2 C -0,7 C 24,8 km/h (4 Bft)
23.02.2012 09:39 5,0 C 6,1 C 4,7 C 4,6 C 2,9 C 0,0 C 76 % 82 % 0 % 1020,0 hPa 0,0 l/m 12,2 km/h (2 Bft) W 270 0 min 0,0 UV-I 1,1 C -0,3 C 18,2 km/h (3 Bft)
23.02.2012 09:44 5,1 C 6,1 C 4,9 C 4,6 C 2,6 C 0,0 C 76 % 82 % 0 % 1020,0 hPa 0,0 l/m 14,3 km/h (3 Bft) W-SW 247 0 min 0,0 UV-I 1,2 C -1,1 C 26,1 km/h (4 Bft)
23.02.2012 09:49 5,1 C 6,1 C 4,8 C 4,3 C 2,6 C 0,0 C 76 % 81 % 0 % 1020,0 hPa 0,0 l/m 15,4 km/h (3 Bft) SO 135 0 min 0,0 UV-I 1,2 C -1,3 C 18,0 km/h (3 Bft)
23.02.2012 09:54 5,1 C 6,1 C 4,8 C 4,6 C 2,7 C 0,0 C 76 % 82 % 0 % 1020,0 hPa 0,0 l/m 14,8 km/h (3 Bft) W-SW 247 0 min 0,0 UV-I 1,2 C -1,1 C 24,1 km/h (4 Bft)
23.02.2012 09:59 5,1 C 6,1 C 4,8 C 4,6 C 2,4 C 0,0 C 77 % 82 % 0 % 1020,0 hPa 0,0 l/m 15,0 km/h (3 Bft) SW 225 0 min 0,0 UV-I 1,4 C -1,5 C 20,8 km/h (4 Bft)
23.02.2012 10:04 5,1 C 6,1 C 4,9 C 4,5 C 2,2 C 0,0 C 77 % 82 % 0 % 1020,0 hPa 0,0 l/m 15,0 km/h (3 Bft) W-SW 247 0 min 0,0 UV-I 1,4 C -1,7 C 18,3 km/h (3 Bft)
23.02.2012 10:09 5,1 C 6,1 C 4,8 C 4,5 C 2,6 C 0,0 C 77 % 82 % 0 % 1020,0 hPa 0,0 l/m 13,7 km/h (3 Bft) W-SW 247 0 min 0,0 UV-I 1,4 C -1,0 C 15,4 km/h (3 Bft)
23.02.2012 10:14 5,1 C 6,1 C 4,8 C 4,3 C 2,6 C 0,0 C 77 % 82 % 0 % 1020,0 hPa 0,0 l/m 13,7 km/h (3 Bft) W-SW 247 0 min 0,0 UV-I 1,4 C -1,0 C 21,6 km/h (4 Bft)
23.02.2012 10:19 5,1 C 6,1 C 4,9 C 4,6 C 2,8 C 0,0 C 77 % 82 % 0 % 1021,1 hPa 0,0 l/m 13,2 km/h (3 Bft) W-SW 247 0 min 0,0 UV-I 1,4 C -0,6 C 12,7 km/h (3 Bft)
23.02.2012 10:24 5,1 C 6,1 C 4,8 C 4,7 C 3,1 C 0,0 C 77 % 82 % 0 % 1021,1 hPa 0,0 l/m 12,4 km/h (3 Bft) S-SW 202 0 min 0,0 UV-I 1,4 C -0,1 C 12,9 km/h (3 Bft)
23.02.2012 10:29 5,1 C 6,1 C 4,8 C 4,4 C 3,1 C 0,0 C 77 % 82 % 0 % 1021,1 hPa 0,0 l/m 12,7 km/h (3 Bft) W-SW 247 0 min 0,0 UV-I 1,4 C -0,2 C 21,4 km/h (4 Bft)
23.02.2012 10:34 5,1 C 6,0 C 4,9 C 4,7 C 3,0 C 0,0 C 79 % 83 % 0 % 1021,1 hPa 0,0 l/m 13,2 km/h (3 Bft) W-SW 247 0 min 0,0 UV-I 1,8 C -0,4 C 19,3 km/h (3 Bft)
23.02.2012 10:39 5,1 C 6,0 C 4,8 C 4,6 C 2,4 C 0,0 C 79 % 83 % 0 % 1020,9 hPa 0,0 l/m 14,3 km/h (3 Bft) SW 225 0 min 0,0 UV-I 1,8 C -1,3 C 23,7 km/h (4 Bft)
23.02.2012 10:44 5,1 C 6,0 C 4,9 C 4,5 C 2,3 C 0,0 C 80 % 83 % 0 % 1020,9 hPa 0,0 l/m 14,0 km/h (3 Bft) SW 225 0 min 0,0 UV-I 1,9 C -1,4 C 25,7 km/h (4 Bft)
23.02.2012 10:49 5,0 C 6,2 C 4,8 C 4,4 C 2,1 C 0,0 C 81 % 84 % 0 % 1020,9 hPa 0,0 l/m 14,8 km/h (3 Bft) N 360 0 min 0,0 UV-I 2,0 C -1,8 C 19,2 km/h (3 Bft)
23.02.2012 10:54 4,8 C 6,2 C 4,8 C 4,2 C 1,9 C 0,0 C 82 % 85 % 0 % 1020,9 hPa 0,0 l/m 15,0 km/h (3 Bft) W-SW 247 0 min 0,0 UV-I 2,0 C -2,1 C 10,0 km/h (2 Bft)
23.02.2012 10:59 4,8 C 6,3 C 4,7 C 3,8 C 1,9 C 0,0 C 83 % 85 % 0 % 1020,8 hPa 0,0 l/m 13,5 km/h (3 Bft) O-SO 112 0 min 0,0 UV-I 2,2 C -1,8 C 16,1 km/h (3 Bft)
23.02.2012 11:04 4,8 C 6,2 C 4,8 C 4,2 C 2,1 C 0,0 C 83 % 86 % 0 % 1020,8 hPa 0,0 l/m 12,9 km/h (3 Bft) W-SW 247 0 min 0,0 UV-I 2,2 C -1,4 C 14,2 km/h (3 Bft)
23.02.2012 11:09 4,9 C 6,2 C 4,9 C 4,3 C 2,4 C 0,0 C 83 % 86 % 0 % 1020,8 hPa 0,0 l/m 12,7 km/h (3 Bft) S-SW 202 0 min 0,0 UV-I 2,3 C -1,0 C 15,6 km/h (3 Bft)
23.02.2012 11:14 4,9 C 6,2 C 5,0 C 4,4 C 2,6 C 0,0 C 83 % 85 % 0 % 1020,8 hPa 0,0 l/m 13,0 km/h (3 Bft) SW 225 0 min 0,0 UV-I 2,3 C -0,8 C 11,9 km/h (2 Bft)
23.02.2012 11:19 5,1 C 6,2 C 5,0 C 4,7 C 3,1 C 0,0 C 82 % 85 % 0 % 1020,9 hPa 0,0 l/m 12,4 km/h (3 Bft) W-SW 247 0 min 0,0 UV-I 2,3 C -0,1 C 20,6 km/h (4 Bft)
23.02.2012 11:24 5,1 C 6,2 C 5,1 C 4,4 C 3,1 C 0,0 C 82 % 85 % 0 % 1020,9 hPa 0,0 l/m 13,2 km/h (3 Bft) W-SW 247 0 min 0,0 UV-I 2,3 C -0,3 C 18,8 km/h (3 Bft)
23.02.2012 11:29 5,2 C 6,2 C 5,2 C 4,8 C 3,2 C 0,0 C 81 % 84 % 0 % 1020,9 hPa 0,0 l/m 13,7 km/h (3 Bft) W-SW 247 0 min 0,0 UV-I 2,2 C -0,2 C 11,1 km/h (2 Bft)
23.02.2012 11:34 5,2 C 6,2 C 5,2 C 4,5 C 3,2 C 0,0 C 81 % 84 % 0 % 1020,9 hPa 0,0 l/m 13,7 km/h (3 Bft) W-SW 247 0 min 0,0 UV-I 2,2 C -0,2 C 13,2 km/h (3 Bft)
23.02.2012 11:39 5,4 C 6,2 C 5,3 C 4,7 C 3,2 C 0,0 C 81 % 84 % 0 % 1021,3 hPa 0,0 l/m 13,4 km/h (3 Bft) W-SW 247 0 min 0,0 UV-I 2,4 C -0,2 C 12,1 km/h (2 Bft)
23.02.2012 11:44 5,4 C 6,0 C 5,4 C 5,0 C 3,4 C 0,0 C 81 % 84 % 0 % 1021,3 hPa 0,0 l/m 13,5 km/h (3 Bft) SW 225 0 min 0,0 UV-I 2,4 C 0,0 C 25,9 km/h (4 Bft)
23.02.2012 11:49 5,5 C 6,0 C 5,5 C 4,8 C 3,4 C 0,0 C 81 % 84 % 0 % 1021,3 hPa 0,0 l/m 13,8 km/h (3 Bft) SW 225 0 min 0,0 UV-I 2,5 C -0,0 C 16,3 km/h (3 Bft)
23.02.2012 11:54 5,7 C 6,0 C 5,5 C 4,9 C 3,4 C 0,0 C 81 % 84 % 0 % 1021,3 hPa 0,0 l/m 14,2 km/h (3 Bft) SW 225 0 min 0,0 UV-I 2,7 C -0,1 C 11,3 km/h (2 Bft)
23.02.2012 11:59 5,7 C 6,0 C 5,6 C 5,3 C 3,5 C 0,0 C 81 % 84 % 0 % 1021,0 hPa 0,0 l/m 14,6 km/h (3 Bft) SW 225 0 min 0,0 UV-I 2,7 C -0,0 C 16,7 km/h (3 Bft)
23.02.2012 12:04 5,7 C 6,0 C 5,6 C 5,3 C 3,8 C 0,0 C 80 % 83 % 0 % 1021,0 hPa 0,0 l/m 13,7 km/h (3 Bft) S-SW 202 0 min 0,0 UV-I 2,5 C 0,5 C 15,9 km/h (3 Bft)
23.02.2012 12:09 5,9 C 6,0 C 5,6 C 5,5 C 4,1 C 0,0 C 80 % 84 % 0 % 1021,0 hPa 0,0 l/m 12,6 km/h (3 Bft) SW 225 0 min 0,0 UV-I 2,7 C 1,1 C 18,8 km/h (3 Bft)
23.02.2012 12:14 5,8 C 6,0 C 5,7 C 5,5 C 4,2 C 0,0 C 80 % 83 % 0 % 1021,0 hPa 0,0 l/m 11,9 km/h (2 Bft) W 270 0 min 0,0 UV-I 2,6 C 1,3 C 11,1 km/h (2 Bft)
23.02.2012 12:19 5,9 C 6,0 C 5,7 C 5,6 C 4,3 C 0,0 C 80 % 83 % 0 % 1021,6 hPa 0,0 l/m 11,6 km/h (2 Bft) W-SW 247 0 min 0,0 UV-I 2,7 C 1,5 C 12,6 km/h (3 Bft)
23.02.2012 12:24 5,9 C 6,0 C 5,9 C 5,4 C 4,3 C 0,0 C 80 % 83 % 0 % 1021,6 hPa 0,0 l/m 11,6 km/h (2 Bft) W 270 0 min 0,0 UV-I 2,7 C 1,5 C 13,7 km/h (3 Bft)
23.02.2012 12:29 6,0 C 6,0 C 5,9 C 5,7 C 4,2 C 0,0 C 80 % 83 % 0 % 1021,6 hPa 0,0 l/m 11,7 km/h (2 Bft) SW 225 0 min 0,0 UV-I 2,8 C 1,3 C 15,6 km/h (3 Bft)
23.02.2012 12:34 6,0 C 6,2 C 5,9 C 5,7 C 4,4 C 0,0 C 80 % 83 % 0 % 1021,6 hPa 0,0 l/m 11,3 km/h (2 Bft) S-SW 202 0 min 0,0 UV-I 2,8 C 1,7 C 8,7 km/h (2 Bft)
23.02.2012 12:39 6,1 C 6,2 C 6,0 C 5,8 C 4,6 C 0,0 C 80 % 83 % 0 % 1021,7 hPa 0,0 l/m 10,8 km/h (2 Bft) W-SW 247 0 min 0,0 UV-I 2,9 C 2,0 C 8,7 km/h (2 Bft)
23.02.2012 12:44 6,3 C 6,2 C 6,0 C 6,0 C 4,9 C 0,0 C 80 % 83 % 0 % 1021,7 hPa 0,0 l/m 10,0 km/h (2 Bft) SW 225 0 min 0,0 UV-I 3,1 C 2,5 C 13,0 km/h (3 Bft)
23.02.2012 12:49 6,3 C 6,2 C 6,1 C 5,8 C 4,9 C 0,0 C 80 % 83 % 0 % 1021,7 hPa 0,0 l/m 10,1 km/h (2 Bft) W-SW 247 0 min 0,0 UV-I 3,1 C 2,5 C 13,2 km/h (3 Bft)
23.02.2012 12:54 6,3 C 6,2 C 6,0 C 6,0 C 4,6 C 0,0 C 80 % 83 % 0 % 1021,7 hPa 0,0 l/m 11,4 km/h (2 Bft) W 270 0 min 0,0 UV-I 3,1 C 1,9 C 15,9 km/h (3 Bft)
23.02.2012 12:59 6,3 C 6,2 C 6,0 C 6,0 C 4,7 C 0,0 C 80 % 83 % 0 % 1021,6 hPa 0,0 l/m 11,1 km/h (2 Bft) W-SW 247 0 min 0,0 UV-I 3,1 C 2,1 C 15,0 km/h (3 Bft)
23.02.2012 13:04 6,3 C 6,2 C 6,0 C 6,0 C 4,9 C 0,0 C 80 % 83 % 0 % 1021,6 hPa 0,0 l/m 10,1 km/h (2 Bft) W 270 0 min 0,0 UV-I 3,1 C 2,5 C 6,3 km/h (2 Bft)
23.02.2012 13:09 6,4 C 6,2 C 6,1 C 5,9 C 4,9 C 0,0 C 80 % 84 % 0 % 1021,6 hPa 0,0 l/m 10,6 km/h (2 Bft) W-SW 247 0 min 0,0 UV-I 3,2 C 2,4 C 10,0 km/h (2 Bft)
23.02.2012 13:14 6,4 C 6,2 C 6,3 C 6,2 C 5,1 C 0,0 C 80 % 84 % 0 % 1021,6 hPa 0,0 l/m 10,0 km/h (2 Bft) SW 225 0 min 0,0 UV-I 3,2 C 2,8 C 7,7 km/h (2 Bft)
23.02.2012 13:19 6,4 C 6,2 C 6,2 C 6,2 C 5,2 C 0,0 C 80 % 84 % 0 % 1021,8 hPa 0,0 l/m 9,2 km/h (2 Bft) SW 225 0 min 0,0 UV-I 3,2 C 3,1 C 12,9 km/h (3 Bft)
23.02.2012 13:24 6,5 C 6,2 C 6,3 C 6,1 C 5,2 C 0,0 C 80 % 84 % 0 % 1021,8 hPa 0,0 l/m 9,8 km/h (2 Bft) SW 225 0 min 0,0 UV-I 3,3 C 2,9 C 9,8 km/h (2 Bft)
23.02.2012 13:29 6,5 C 6,2 C 6,4 C 6,3 C 5,3 C 0,0 C 81 % 84 % 0 % 1021,8 hPa 0,0 l/m 9,3 km/h (2 Bft) SW 225 0 min 0,0 UV-I 3,5 C 3,2 C 10,6 km/h (2 Bft)
23.02.2012 13:34 6,7 C 6,2 C 6,4 C 6,5 C 5,7 C 0,0 C 81 % 84 % 0 % 1021,8 hPa 0,0 l/m 8,4 km/h (2 Bft) SW 225 0 min 0,0 UV-I 3,7 C 3,9 C 13,0 km/h (3 Bft)
23.02.2012 13:39 6,7 C 6,1 C 6,5 C 6,4 C 5,7 C 0,0 C 81 % 84 % 0 % 1021,8 hPa 0,0 l/m 8,7 km/h (2 Bft) W-SW 247 0 min 0,0 UV-I 3,7 C 3,8 C 12,7 km/h (3 Bft)
23.02.2012 13:44 6,8 C 6,1 C 6,7 C 6,4 C 5,7 C 0,0 C 81 % 84 % 0 % 1021,8 hPa 0,0 l/m 10,5 km/h (2 Bft) W-SW 247 0 min 0,0 UV-I 3,8 C 3,4 C 14,2 km/h (3 Bft)
23.02.2012 13:49 6,9 C 6,1 C 6,8 C 6,5 C 5,7 C 0,0 C 81 % 84 % 0 % 1021,8 hPa 0,0 l/m 11,1 km/h (2 Bft) W-SW 247 0 min 0,0 UV-I 3,9 C 3,3 C 10,3 km/h (2 Bft)
23.02.2012 13:54 7,1 C 6,1 C 6,9 C 6,9 C 5,8 C 0,0 C 82 % 85 % 0 % 1021,8 hPa 0,0 l/m 10,8 km/h (2 Bft) W-SW 247 0 min 0,0 UV-I 4,2 C 3,5 C 9,3 km/h (2 Bft)
23.02.2012 13:59 7,2 C 6,1 C 7,0 C 7,0 C 6,0 C 0,0 C 82 % 84 % 0 % 1021,8 hPa 0,0 l/m 10,6 km/h (2 Bft) SW 225 0 min 0,0 UV-I 4,3 C 3,7 C 14,2 km/h (3 Bft)
23.02.2012 14:04 7,2 C 6,1 C 7,0 C 7,0 C 5,9 C 0,0 C 82 % 85 % 0 % 1021,8 hPa 0,0 l/m 11,1 km/h (2 Bft) SW 225 0 min 0,0 UV-I 4,3 C 3,5 C 10,3 km/h (2 Bft)
23.02.2012 14:09 7,3 C 6,1 C 7,1 C 7,1 C 6,3 C 0,0 C 82 % 85 % 0 % 1021,8 hPa 0,0 l/m 9,8 km/h (2 Bft) W-SW 247 0 min 0,0 UV-I 4,4 C 4,3 C 8,4 km/h (2 Bft)
23.02.2012 14:14 7,5 C 6,1 C 7,1 C 7,3 C 6,5 C 0,0 C 82 % 85 % 0 % 1021,8 hPa 0,0 l/m 8,9 km/h (2 Bft) W-SW 247 0 min 0,0 UV-I 4,6 C 4,7 C 11,1 km/h (2 Bft)
23.02.2012 14:19 7,5 C 6,1 C 7,2 C 7,2 C 6,5 C 0,0 C 82 % 85 % 0 % 1022,6 hPa 0,0 l/m 9,5 km/h (2 Bft) SW 225 0 min 0,0 UV-I 4,6 C 4,6 C 10,9 km/h (2 Bft)
23.02.2012 14:24 7,6 C 6,1 C 7,3 C 7,4 C 6,1 C 0,0 C 82 % 85 % 0 % 1022,6 hPa 0,0 l/m 11,9 km/h (2 Bft) W-SW 247 0 min 0,0 UV-I 4,7 C 3,6 C 21,1 km/h (4 Bft)
23.02.2012 14:29 7,6 C 6,1 C 7,4 C 7,4 C 6,2 C 0,0 C 82 % 85 % 0 % 1022,6 hPa 0,0 l/m 12,2 km/h (2 Bft) W-SW 247 0 min 0,0 UV-I 4,7 C 3,7 C 10,1 km/h (2 Bft)
23.02.2012 14:34 7,7 C 6,2 C 7,5 C 7,2 C 6,2 C 0,0 C 82 % 85 % 0 % 1022,6 hPa 0,0 l/m 12,1 km/h (2 Bft) W-SW 247 0 min 0,0 UV-I 4,8 C 3,7 C 11,6 km/h (2 Bft)
23.02.2012 14:39 7,7 C 6,1 C 7,5 C 7,4 C 6,3 C 0,0 C 82 % 85 % 0 % 1022,4 hPa 0,0 l/m 11,6 km/h (2 Bft) S 180 0 min 0,0 UV-I 4,8 C 3,9 C 12,9 km/h (3 Bft)
23.02.2012 14:44 7,7 C 6,2 C 7,5 C 7,2 C 6,3 C 0,0 C 82 % 84 % 0 % 1022,4 hPa 0,7 l/m 12,1 km/h (2 Bft) W-SW 247 0 min 0,0 UV-I 4,8 C 3,8 C 9,7 km/h (2 Bft)
23.02.2012 14:49 7,8 C 6,2 C 7,5 C 7,6 C 6,5 C 0,0 C 82 % 84 % 0 % 1022,4 hPa 0,0 l/m 11,1 km/h (2 Bft) SW 225 0 min 0,0 UV-I 4,9 C 4,2 C 10,9 km/h (2 Bft)
23.02.2012 14:54 7,8 C 6,2 C 7,5 C 7,4 C 6,5 C 0,0 C 82 % 85 % 0 % 1022,4 hPa 0,0 l/m 11,1 km/h (2 Bft) W-SW 247 0 min 0,0 UV-I 4,9 C 4,2 C 16,3 km/h (3 Bft)
23.02.2012 14:59 7,8 C 6,2 C 7,5 C 7,5 C 6,3 C 0,0 C 82 % 85 % 0 % 1022,4 hPa 0,0 l/m 11,1 km/h (2 Bft) W-SW 247 0 min 0,0 UV-I 4,9 C 4,0 C 10,9 km/h (2 Bft)
23.02.2012 15:04 7,9 C 6,2 C 7,7 C 7,6 C 6,4 C 0,0 C 82 % 85 % 0 % 1022,4 hPa 0,0 l/m 11,3 km/h (2 Bft) W-SW 247 0 min 0,0 UV-I 5,0 C 4,1 C 10,6 km/h (2 Bft)
23.02.2012 15:09 7,9 C 6,2 C 7,7 C 7,4 C 6,4 C 0,0 C 82 % 85 % 0 % 1022,4 hPa 0,0 l/m 10,6 km/h (2 Bft) W-SW 247 0 min 0,0 UV-I 5,0 C 4,2 C 11,1 km/h (2 Bft)
23.02.2012 15:14 7,9 C 6,2 C 7,6 C 7,4 C 6,4 C 0,0 C 82 % 85 % 0 % 1022,4 hPa 0,0 l/m 10,8 km/h (2 Bft) W-SW 247 0 min 0,0 UV-I 5,0 C 4,2 C 10,5 km/h (2 Bft)
23.02.2012 15:20 7,9 C 6,2 C 7,6 C 7,6 C 6,5 C 0,0 C 82 % 85 % 0 % 1022,6 hPa 0,0 l/m 10,3 km/h (2 Bft) W-SW 247 0 min 0,0 UV-I 5,0 C 4,4 C 10,5 km/h (2 Bft)
23.02.2012 15:25 7,9 C 6,2 C 7,6 C 7,6 C 6,4 C 0,0 C 82 % 85 % 0 % 1022,6 hPa 0,0 l/m 10,6 km/h (2 Bft) W-SW 247 0 min 0,0 UV-I 5,0 C 4,2 C 12,1 km/h (2 Bft)
23.02.2012 15:30 7,9 C 6,2 C 7,6 C 7,6 C 6,3 C 0,0 C 82 % 85 % 0 % 1022,6 hPa 0,0 l/m 11,1 km/h (2 Bft) W-SW 247 0 min 0,0 UV-I 5,0 C 4,0 C 13,7 km/h (3 Bft)
23.02.2012 15:35 7,9 C 6,2 C 7,7 C 7,4 C 6,3 C 0,0 C 82 % 85 % 0 % 1022,6 hPa 0,0 l/m 10,9 km/h (2 Bft) W 270 0 min 0,0 UV-I 5,0 C 4,0 C 9,3 km/h (2 Bft)
23.02.2012 15:40 7,9 C 6,2 C 7,7 C 7,4 C 6,3 C 0,0 C 82 % 85 % 0 % 1022,8 hPa 0,0 l/m 10,8 km/h (2 Bft) W 270 0 min 0,0 UV-I 5,0 C 4,1 C 14,0 km/h (3 Bft)
23.02.2012 15:44 7,9 C 6,2 C 7,6 C 7,6 C 6,4 C 0,0 C 82 % 85 % 0 % 1022,8 hPa 0,0 l/m 10,3 km/h (2 Bft) S 180 0 min 0,0 UV-I 5,0 C 4,3 C 13,2 km/h (3 Bft)
23.02.2012 15:49 7,9 C 6,2 C 7,7 C 7,6 C 6,5 C 0,0 C 82 % 85 % 0 % 1022,8 hPa 0,0 l/m 10,3 km/h (2 Bft) SW 225 0 min 0,0 UV-I 5,0 C 4,4 C 10,0 km/h (2 Bft)
23.02.2012 15:51 7,9 C 6,2 C 7,7 C 7,4 C 6,5 C 0,0 C 82 % 85 % 0 % 1022,8 hPa 0,0 l/m 10,3 km/h (2 Bft) SW 225 0 min 0,0 UV-I 5,0 C 4,4 C 10,0 km/h (2 Bft)
23.02.2012 15:55 7,8 C 6,2 C 7,6 C 7,4 C 6,5 C 0,0 C 82 % 85 % 0 % 1022,8 hPa 0,0 l/m 10,5 km/h (2 Bft) W-SW 247 0 min 0,0 UV-I 4,9 C 4,4 C 10,9 km/h (2 Bft)
23.02.2012 16:00 7,8 C 6,2 C 7,6 C 7,6 C 6,4 C 0,0 C 82 % 85 % 0 % 1022,9 hPa 0,0 l/m 10,9 km/h (2 Bft) W-SW 247 0 min 0,0 UV-I 4,9 C 4,2 C 14,6 km/h (3 Bft)
23.02.2012 16:07 7,9 C 6,2 C 7,7 C 7,4 C 6,4 C 0,0 C 82 % 85 % 0 % 1022,9 hPa 0,0 l/m 11,7 km/h (2 Bft) N 0 0 min 0,0 UV-I 5,0 C 4,0 C 12,9 km/h (3 Bft)
23.02.2012 16:09 7,9 C 6,2 C 7,7 C 7,4 C 6,4 C 0,0 C 82 % 85 % 0 % 1022,9 hPa 0,0 l/m 11,9 km/h (2 Bft) W-SW 247 0 min 0,0 UV-I 5,0 C 4,0 C 18,5 km/h (3 Bft)
23.02.2012 16:14 8,0 C 6,2 C 7,7 C 7,5 C 6,4 C 0,0 C 82 % 85 % 0 % 1022,9 hPa 0,0 l/m 11,7 km/h (2 Bft) SW 225 0 min 0,0 UV-I 5,1 C 4,0 C 12,7 km/h (3 Bft)
23.02.2012 16:19 8,0 C 6,2 C 7,9 C 7,5 C 6,4 C 0,0 C 82 % 85 % 0 % 1022,9 hPa 0,0 l/m 11,4 km/h (2 Bft) SW 225 0 min 0,0 UV-I 5,1 C 4,1 C 8,0 km/h (2 Bft)
23.02.2012 16:24 8,0 C 6,2 C 7,7 C 7,7 C 6,5 C 0,0 C 82 % 85 % 0 % 1022,9 hPa 0,0 l/m 10,9 km/h (2 Bft) W-SW 247 0 min 0,0 UV-I 5,1 C 4,3 C 14,3 km/h (3 Bft)
23.02.2012 16:29 7,9 C 6,2 C 7,7 C 7,7 C 6,7 C 0,0 C 82 % 85 % 0 % 1022,9 hPa 0,0 l/m 9,8 km/h (2 Bft) W-SW 247 0 min 0,0 UV-I 5,0 C 4,7 C 8,7 km/h (2 Bft)
23.02.2012 16:34 7,9 C 6,2 C 7,7 C 7,5 C 6,7 C 0,0 C 82 % 85 % 0 % 1022,9 hPa 0,0 l/m 9,7 km/h (2 Bft) S-SW 202 0 min 0,0 UV-I 5,0 C 4,8 C 13,5 km/h (3 Bft)
23.02.2012 16:39 8,0 C 6,2 C 7,7 C 7,6 C 6,7 C 0,0 C 82 % 85 % 0 % 1022,6 hPa 0,0 l/m 9,3 km/h (2 Bft) W 270 0 min 0,0 UV-I 5,1 C 4,8 C 12,6 km/h (3 Bft)
23.02.2012 16:44 7,9 C 6,2 C 7,6 C 7,7 C 6,6 C 0,0 C 82 % 85 % 0 % 1022,6 hPa 0,0 l/m 10,0 km/h (2 Bft) SW 225 0 min 0,0 UV-I 5,0 C 4,6 C 15,1 km/h (3 Bft)
23.02.2012 16:49 7,9 C 6,2 C 7,7 C 7,5 C 6,6 C 0,0 C 82 % 85 % 0 % 1022,6 hPa 0,0 l/m 9,8 km/h (2 Bft) W-SW 247 0 min 0,0 UV-I 5,0 C 4,6 C 10,6 km/h (2 Bft)
23.02.2012 16:54 7,9 C 6,2 C 7,6 C 7,7 C 6,7 C 0,0 C 82 % 85 % 0 % 1022,6 hPa 0,0 l/m 9,0 km/h (2 Bft) SW 225 0 min 0,0 UV-I 5,0 C 4,9 C 15,6 km/h (3 Bft)
23.02.2012 16:59 7,9 C 6,2 C 7,6 C 7,7 C 6,8 C 0,0 C 82 % 85 % 0 % 1022,8 hPa 0,0 l/m 8,5 km/h (2 Bft) SW 225 0 min 0,0 UV-I 5,0 C 5,1 C 7,7 km/h (2 Bft)
23.02.2012 17:04 8,0 C 6,2 C 7,7 C 7,7 C 6,6 C 0,0 C 82 % 85 % 0 % 1022,8 hPa 0,0 l/m 10,1 km/h (2 Bft) W-SW 247 0 min 0,0 UV-I 5,1 C 4,5 C 11,6 km/h (2 Bft)
23.02.2012 17:09 8,0 C 6,2 C 7,6 C 7,7 C 6,7 C 0,0 C 82 % 85 % 0 % 1022,8 hPa 0,0 l/m 9,3 km/h (2 Bft) SW 225 0 min 0,0 UV-I 5,1 C 4,8 C 6,9 km/h (2 Bft)
23.02.2012 17:14 7,9 C 6,2 C 7,6 C 7,7 C 6,8 C 0,0 C 82 % 85 % 0 % 1022,8 hPa 0,0 l/m 8,7 km/h (2 Bft) W-SW 247 0 min 0,0 UV-I 5,0 C 5,1 C 8,4 km/h (2 Bft)
23.02.2012 17:19 7,9 C 6,2 C 7,6 C 7,7 C 6,7 C 0,0 C 82 % 85 % 0 % 1023,0 hPa 0,0 l/m 9,3 km/h (2 Bft) SW 225 0 min 0,0 UV-I 5,0 C 4,8 C 12,7 km/h (3 Bft)
23.02.2012 17:24 7,9 C 6,2 C 7,7 C 7,6 C 6,4 C 0,0 C 82 % 85 % 0 % 1023,0 hPa 0,0 l/m 10,5 km/h (2 Bft) SW 225 0 min 0,0 UV-I 5,0 C 4,2 C 11,9 km/h (2 Bft)
23.02.2012 17:29 7,8 C 6,3 C 7,6 C 7,5 C 6,3 C 0,0 C 82 % 85 % 0 % 1023,0 hPa 0,0 l/m 10,3 km/h (2 Bft) S-SW 202 0 min 0,0 UV-I 4,9 C 4,2 C 14,8 km/h (3 Bft)
23.02.2012 17:34 7,9 C 6,2 C 7,7 C 7,4 C 6,3 C 0,0 C 83 % 86 % 0 % 1023,0 hPa 0,0 l/m 10,5 km/h (2 Bft) SW 225 0 min 0,0 UV-I 5,2 C 4,1 C 13,0 km/h (3 Bft)
23.02.2012 17:39 7,9 C 6,3 C 7,7 C 7,5 C 6,1 C 0,0 C 82 % 85 % 0 % 1023,0 hPa 0,0 l/m 11,7 km/h (2 Bft) W-SW 247 0 min 0,0 UV-I 5,0 C 3,6 C 13,4 km/h (3 Bft)
23.02.2012 17:44 7,8 C 6,3 C 7,7 C 7,2 C 6,1 C 0,0 C 82 % 85 % 0 % 1023,0 hPa 0,0 l/m 11,9 km/h (2 Bft) W-SW 247 0 min 0,0 UV-I 4,9 C 3,6 C 9,8 km/h (2 Bft)
23.02.2012 17:49 7,8 C 6,2 C 7,6 C 7,5 C 6,3 C 0,0 C 82 % 85 % 0 % 1023,0 hPa 0,0 l/m 10,1 km/h (2 Bft) W-SW 247 0 min 0,0 UV-I 4,9 C 4,2 C 12,6 km/h (3 Bft)
23.02.2012 17:54 7,9 C 6,2 C 7,6 C 7,6 C 6,7 C 0,0 C 82 % 85 % 0 % 1023,0 hPa 0,0 l/m 9,3 km/h (2 Bft) W-SW 247 0 min 0,0 UV-I 5,0 C 4,8 C 11,7 km/h (2 Bft)
23.02.2012 17:59 8,0 C 6,2 C 7,6 C 7,6 C 6,7 C 0,0 C 82 % 85 % 0 % 1023,4 hPa 0,0 l/m 9,0 km/h (2 Bft) W-SW 247 0 min 0,0 UV-I 5,1 C 4,9 C 9,8 km/h (2 Bft)
23.02.2012 18:04 8,0 C 6,2 C 7,6 C 7,7 C 6,8 C 0,0 C 82 % 85 % 0 % 1023,4 hPa 0,0 l/m 8,7 km/h (2 Bft) SW 225 0 min 0,0 UV-I 5,1 C 5,1 C 8,9 km/h (2 Bft)
23.02.2012 18:09 8,0 C 6,3 C 7,7 C 7,8 C 6,9 C 0,0 C 82 % 85 % 0 % 1023,4 hPa 0,0 l/m 8,4 km/h (2 Bft) W-SW 247 0 min 0,0 UV-I 5,1 C 5,3 C 10,1 km/h (2 Bft)
23.02.2012 18:14 7,9 C 6,3 C 7,7 C 7,6 C 6,9 C 0,0 C 82 % 85 % 0 % 1023,4 hPa 0,0 l/m 8,2 km/h (2 Bft) W-SW 247 0 min 0,0 UV-I 5,0 C 5,3 C 13,4 km/h (3 Bft)
23.02.2012 18:19 7,9 C 6,3 C 7,6 C 7,6 C 6,9 C 0,0 C 82 % 86 % 0 % 1023,4 hPa 0,0 l/m 8,2 km/h (2 Bft) S 180 0 min 0,0 UV-I 5,0 C 5,3 C 10,6 km/h (2 Bft)
23.02.2012 18:24 7,9 C 6,3 C 7,7 C 7,6 C 6,9 C 0,0 C 82 % 86 % 0 % 1023,4 hPa 0,0 l/m 7,4 km/h (2 Bft) W 270 0 min 0,0 UV-I 5,0 C 5,5 C 9,5 km/h (2 Bft)
23.02.2012 18:29 7,9 C 6,3 C 7,6 C 7,7 C 6,8 C 0,0 C 82 % 86 % 0 % 1023,4 hPa 0,0 l/m 8,0 km/h (2 Bft) W-SW 247 0 min 0,0 UV-I 5,0 C 5,2 C 11,7 km/h (2 Bft)
23.02.2012 18:34 7,9 C 6,3 C 7,7 C 7,5 C 6,8 C 0,0 C 83 % 86 % 0 % 1023,4 hPa 0,0 l/m 8,4 km/h (2 Bft) W-SW 247 0 min 0,0 UV-I 5,2 C 5,2 C 7,6 km/h (2 Bft)
23.02.2012 18:39 7,9 C 6,3 C 7,6 C 7,7 C 6,6 C 0,0 C 82 % 86 % 0 % 1023,4 hPa 0,0 l/m 9,8 km/h (2 Bft) W-SW 247 0 min 0,0 UV-I 5,0 C 4,6 C 9,8 km/h (2 Bft)
23.02.2012 18:44 7,9 C 6,3 C 7,7 C 7,6 C 6,4 C 0,0 C 83 % 86 % 0 % 1023,4 hPa 0,0 l/m 10,5 km/h (2 Bft) W-SW 247 0 min 0,0 UV-I 5,2 C 4,2 C 10,5 km/h (2 Bft)
23.02.2012 18:49 7,9 C 6,3 C 7,6 C 7,4 C 6,4 C 0,0 C 83 % 86 % 0 % 1023,4 hPa 0,0 l/m 10,3 km/h (2 Bft) SW 225 0 min 0,0 UV-I 5,2 C 4,3 C 8,7 km/h (2 Bft)
23.02.2012 18:54 7,9 C 6,3 C 7,7 C 7,6 C 6,6 C 0,0 C 83 % 86 % 0 % 1023,4 hPa 0,0 l/m 9,5 km/h (2 Bft) W 270 0 min 0,0 UV-I 5,2 C 4,7 C 14,6 km/h (3 Bft)
23.02.2012 18:59 7,8 C 6,3 C 7,6 C 7,6 C 6,7 C 0,0 C 82 % 86 % 0 % 1023,8 hPa 0,0 l/m 8,5 km/h (2 Bft) SW 225 0 min 0,0 UV-I 4,9 C 5,0 C 7,9 km/h (2 Bft)
23.02.2012 19:04 7,8 C 6,3 C 7,6 C 7,4 C 6,7 C 0,0 C 83 % 86 % 0 % 1023,8 hPa 0,0 l/m 8,2 km/h (2 Bft) W-SW 247 0 min 0,0 UV-I 5,1 C 5,1 C 12,6 km/h (3 Bft)
23.02.2012 19:09 7,9 C 6,3 C 7,5 C 7,6 C 7,1 C 0,0 C 82 % 86 % 0 % 1023,8 hPa 0,0 l/m 6,6 km/h (2 Bft) W-SW 247 0 min 0,0 UV-I 5,0 C 6,0 C 6,3 km/h (2 Bft)
23.02.2012 19:14 7,6 C 6,3 C 7,2 C 7,5 C 7,2 C 0,0 C 81 % 85 % 0 % 1023,8 hPa 0,0 l/m 5,6 km/h (1 Bft) W-SW 247 0 min 0,0 UV-I 4,6 C 6,4 C 10,0 km/h (2 Bft)
23.02.2012 19:19 7,5 C 6,2 C 7,1 C 7,4 C 7,2 C 0,0 C 81 % 84 % 0 % 1024,0 hPa 0,0 l/m 4,5 km/h (1 Bft) O-SO 112 0 min 0,0 UV-I 4,5 C 7,2 C 5,3 km/h (1 Bft)
23.02.2012 19:24 7,2 C 6,3 C 6,9 C 7,3 C 7,3 C 0,1 C 81 % 84 % 0 % 1024,0 hPa 0,0 l/m 3,4 km/h (1 Bft) SO 135 0 min 0,0 UV-I 4,2 C 7,3 C 3,1 km/h (1 Bft)
23.02.2012 19:29 7,1 C 6,3 C 6,8 C 7,2 C 7,2 C 0,1 C 81 % 84 % 0 % 1024,0 hPa 0,0 l/m 3,2 km/h (1 Bft) W-SW 247 0 min 0,0 UV-I 4,1 C 7,2 C 7,4 km/h (2 Bft)
23.02.2012 19:34 6,8 C 6,3 C 6,7 C 6,7 C 6,4 C 0,0 C 81 % 85 % 0 % 1024,0 hPa 0,0 l/m 4,2 km/h (1 Bft) SW 225 0 min 0,0 UV-I 3,8 C 6,4 C 2,7 km/h (1 Bft)
23.02.2012 19:39 6,8 C 6,4 C 6,5 C 6,4 C 5,7 C 0,0 C 82 % 85 % 0 % 1023,4 hPa 0,0 l/m 5,6 km/h (1 Bft) SW 225 0 min 0,0 UV-I 3,9 C 4,7 C 12,2 km/h (2 Bft)
23.02.2012 19:44 6,6 C 6,3 C 6,4 C 6,3 C 5,0 C 0,0 C 82 % 85 % 0 % 1023,4 hPa 0,0 l/m 8,2 km/h (2 Bft) S 180 0 min 0,0 UV-I 3,8 C 3,1 C 10,3 km/h (2 Bft)
23.02.2012 19:49 6,7 C 6,3 C 6,4 C 6,3 C 4,9 C 0,0 C 82 % 85 % 0 % 1023,4 hPa 0,0 l/m 8,7 km/h (2 Bft) W-SW 247 0 min 0,0 UV-I 3,8 C 2,8 C 6,8 km/h (2 Bft)
23.02.2012 19:54 6,6 C 6,3 C 6,3 C 6,3 C 5,2 C 0,0 C 82 % 85 % 0 % 1023,4 hPa 0,0 l/m 8,0 km/h (2 Bft) W-SW 247 0 min 0,0 UV-I 3,8 C 3,4 C 6,4 km/h (2 Bft)
23.02.2012 19:59 6,5 C 6,3 C 6,3 C 6,1 C 5,3 C 0,0 C 82 % 85 % 0 % 1023,4 hPa 0,0 l/m 7,4 km/h (2 Bft) W 270 0 min 0,0 UV-I 3,7 C 3,6 C 9,8 km/h (2 Bft)
23.02.2012 20:04 6,5 C 6,3 C 6,3 C 6,1 C 5,4 C 0,0 C 82 % 85 % 0 % 1023,4 hPa 0,0 l/m 7,1 km/h (2 Bft) S 180 0 min 0,0 UV-I 3,7 C 3,8 C 8,4 km/h (2 Bft)
23.02.2012 20:09 6,4 C 6,3 C 6,2 C 6,2 C 5,2 C 0,0 C 82 % 85 % 0 % 1023,4 hPa 0,0 l/m 7,7 km/h (2 Bft) W-SW 247 0 min 0,0 UV-I 3,6 C 3,4 C 10,6 km/h (2 Bft)
23.02.2012 20:14 6,5 C 6,3 C 6,1 C 6,1 C 5,2 C 0,0 C 82 % 85 % 0 % 1023,4 hPa 0,0 l/m 7,7 km/h (2 Bft) SW 225 0 min 0,0 UV-I 3,7 C 3,4 C 8,9 km/h (2 Bft)
23.02.2012 20:19 6,4 C 6,3 C 6,1 C 6,1 C 4,9 C 0,0 C 82 % 85 % 0 % 1023,4 hPa 0,0 l/m 9,0 km/h (2 Bft) W 270 0 min 0,0 UV-I 3,6 C 2,8 C 8,5 km/h (2 Bft)
23.02.2012 20:24 6,4 C 6,4 C 6,1 C 6,1 C 5,0 C 0,0 C 83 % 86 % 0 % 1023,4 hPa 0,0 l/m 7,9 km/h (2 Bft) W-SW 247 0 min 0,0 UV-I 3,7 C 3,2 C 4,5 km/h (1 Bft)
23.02.2012 20:29 6,3 C 6,4 C 6,1 C 5,9 C 5,2 C 0,0 C 83 % 86 % 0 % 1023,4 hPa 0,0 l/m 7,2 km/h (2 Bft) S 180 0 min 0,0 UV-I 3,6 C 3,6 C 9,0 km/h (2 Bft)
23.02.2012 20:34 6,3 C 6,5 C 6,0 C 5,9 C 5,2 C 0,0 C 85 % 87 % 0 % 1023,4 hPa 0,0 l/m 7,4 km/h (2 Bft) S-SO 157 0 min 0,0 UV-I 4,0 C 3,5 C 7,2 km/h (2 Bft)
23.02.2012 20:39 6,3 C 6,5 C 6,0 C 6,1 C 5,1 C 0,0 C 85 % 87 % 0 % 1023,4 hPa 0,0 l/m 7,7 km/h (2 Bft) SW 225 0 min 0,0 UV-I 4,0 C 3,3 C 12,6 km/h (3 Bft)
23.02.2012 20:44 6,1 C 6,6 C 6,0 C 5,9 C 4,9 C 0,0 C 85 % 88 % 0 % 1023,4 hPa 0,0 l/m 8,0 km/h (2 Bft) W-SW 247 0 min 0,0 UV-I 3,8 C 3,0 C 9,3 km/h (2 Bft)
23.02.2012 20:49 6,1 C 6,6 C 5,9 C 5,8 C 4,7 C 0,0 C 86 % 88 % 0 % 1023,4 hPa 0,0 l/m 8,4 km/h (2 Bft) W-SW 247 0 min 0,0 UV-I 3,9 C 2,7 C 10,5 km/h (2 Bft)
23.02.2012 20:54 6,1 C 6,6 C 6,0 C 5,6 C 4,7 C 0,0 C 86 % 88 % 0 % 1023,4 hPa 0,0 l/m 8,4 km/h (2 Bft) S-SW 202 0 min 0,0 UV-I 3,9 C 2,7 C 10,0 km/h (2 Bft)
23.02.2012 20:59 6,1 C 6,5 C 6,0 C 5,7 C 4,8 C 0,0 C 86 % 88 % 0 % 1023,3 hPa 0,0 l/m 7,6 km/h (2 Bft) SO 135 0 min 0,0 UV-I 3,9 C 3,0 C 12,6 km/h (3 Bft)
23.02.2012 21:04 6,2 C 6,5 C 6,0 C 5,9 C 4,9 C 0,0 C 86 % 88 % 0 % 1023,3 hPa 0,0 l/m 7,7 km/h (2 Bft) S 180 0 min 0,0 UV-I 4,0 C 3,1 C 13,4 km/h (3 Bft)
23.02.2012 21:09 6,2 C 6,5 C 5,9 C 5,8 C 4,9 C 0,0 C 86 % 88 % 0 % 1023,3 hPa 0,0 l/m 7,7 km/h (2 Bft) W-SW 247 0 min 0,0 UV-I 4,0 C 3,1 C 6,8 km/h (2 Bft)
23.02.2012 21:14 6,2 C 6,5 C 6,0 C 5,8 C 4,9 C 0,0 C 86 % 88 % 0 % 1023,3 hPa 0,0 l/m 7,7 km/h (2 Bft) W-SW 247 0 min 0,0 UV-I 4,0 C 3,1 C 11,1 km/h (2 Bft)
23.02.2012 21:19 6,3 C 6,5 C 5,9 C 6,0 C 4,8 C 0,0 C 86 % 88 % 0 % 1023,8 hPa 0,0 l/m 8,4 km/h (2 Bft) W-SW 247 0 min 0,0 UV-I 4,1 C 2,8 C 12,4 km/h (3 Bft)
23.02.2012 21:24 6,3 C 6,5 C 5,9 C 6,0 C 4,9 C 0,0 C 86 % 88 % 0 % 1023,8 hPa 0,0 l/m 8,5 km/h (2 Bft) SW 225 0 min 0,0 UV-I 4,1 C 2,9 C 9,2 km/h (2 Bft)
23.02.2012 21:29 6,3 C 6,5 C 6,0 C 5,8 C 4,9 C 0,0 C 86 % 88 % 0 % 1023,8 hPa 0,0 l/m 8,5 km/h (2 Bft) SW 225 0 min 0,0 UV-I 4,1 C 2,9 C 6,9 km/h (2 Bft)
23.02.2012 21:34 6,3 C 6,5 C 6,0 C 6,0 C 4,7 C 0,0 C 85 % 88 % 0 % 1023,8 hPa 0,0 l/m 9,5 km/h (2 Bft) W-SW 247 0 min 0,0 UV-I 4,0 C 2,4 C 15,8 km/h (3 Bft)
23.02.2012 21:39 6,3 C 6,4 C 6,0 C 5,9 C 4,3 C 0,0 C 85 % 88 % 0 % 1023,8 hPa 0,0 l/m 11,3 km/h (2 Bft) SW 225 0 min 0,0 UV-I 4,0 C 1,5 C 14,0 km/h (3 Bft)
23.02.2012 21:44 6,3 C 6,4 C 6,0 C 5,6 C 4,3 C 0,0 C 85 % 87 % 0 % 1023,8 hPa 0,0 l/m 11,6 km/h (2 Bft) W-SW 247 0 min 0,0 UV-I 4,0 C 1,5 C 13,4 km/h (3 Bft)
23.02.2012 21:49 6,3 C 6,4 C 6,0 C 5,6 C 4,3 C 0,0 C 85 % 87 % 0 % 1023,8 hPa 0,0 l/m 11,6 km/h (2 Bft) NW 315 0 min 0,0 UV-I 4,0 C 1,5 C 20,8 km/h (4 Bft)
23.02.2012 21:54 6,3 C 6,4 C 6,0 C 5,9 C 4,4 C 0,0 C 85 % 87 % 0 % 1023,8 hPa 0,0 l/m 10,9 km/h (2 Bft) W-SW 247 0 min 0,0 UV-I 4,0 C 1,7 C 13,8 km/h (3 Bft)
23.02.2012 21:59 6,2 C 6,4 C 6,0 C 5,8 C 4,2 C 0,0 C 85 % 87 % 0 % 1023,8 hPa 0,0 l/m 11,3 km/h (2 Bft) SW 225 0 min 0,0 UV-I 3,9 C 1,4 C 14,6 km/h (3 Bft)
23.02.2012 22:04 6,3 C 6,5 C 5,9 C 5,8 C 4,1 C 0,0 C 85 % 87 % 0 % 1023,8 hPa 0,0 l/m 10,3 km/h (2 Bft) W 270 0 min 0,0 UV-I 4,0 C 1,5 C 10,9 km/h (2 Bft)
23.02.2012 22:09 6,2 C 6,6 C 5,9 C 5,8 C 4,2 C 0,0 C 85 % 88 % 0 % 1023,8 hPa 0,0 l/m 10,0 km/h (2 Bft) SW 225 0 min 0,0 UV-I 3,9 C 1,7 C 12,2 km/h (2 Bft)
23.02.2012 22:14 6,1 C 6,6 C 5,9 C 5,6 C 3,9 C 0,0 C 86 % 88 % 0 % 1023,8 hPa 0,0 l/m 10,1 km/h (2 Bft) W-SW 247 0 min 0,0 UV-I 3,9 C 1,3 C 10,5 km/h (2 Bft)
23.02.2012 22:19 6,1 C 6,6 C 5,9 C 5,6 C 3,7 C 0,0 C 86 % 88 % 0 % 1023,8 hPa 0,0 l/m 10,9 km/h (2 Bft) SW 225 0 min 0,0 UV-I 3,9 C 0,9 C 18,8 km/h (3 Bft)
23.02.2012 22:24 6,0 C 6,6 C 5,9 C 5,5 C 3,8 C 0,0 C 86 % 89 % 0 % 1023,8 hPa 0,0 l/m 10,0 km/h (2 Bft) W-SW 247 0 min 0,0 UV-I 3,8 C 1,2 C 10,8 km/h (2 Bft)
23.02.2012 22:29 6,1 C 6,7 C 5,7 C 5,6 C 3,9 C 0,0 C 86 % 89 % 0 % 1023,8 hPa 0,0 l/m 9,5 km/h (2 Bft) SW 225 0 min 0,0 UV-I 3,9 C 1,5 C 9,5 km/h (2 Bft)
23.02.2012 22:34 6,0 C 6,7 C 5,6 C 5,5 C 4,0 C 0,0 C 87 % 89 % 0 % 1023,8 hPa 0,0 l/m 8,9 km/h (2 Bft) W-SW 247 0 min 0,0 UV-I 4,0 C 1,7 C 12,1 km/h (2 Bft)
23.02.2012 22:39 5,9 C 6,7 C 5,6 C 5,5 C 3,9 C 0,0 C 87 % 89 % 0 % 1023,4 hPa 0,0 l/m 9,3 km/h (2 Bft) SW 225 0 min 0,0 UV-I 3,9 C 1,5 C 12,9 km/h (3 Bft)
23.02.2012 22:44 5,9 C 6,7 C 5,6 C 5,4 C 3,7 C 0,0 C 87 % 89 % 0 % 1023,4 hPa 0,0 l/m 9,5 km/h (2 Bft) W-SW 247 0 min 0,0 UV-I 3,9 C 1,2 C 14,2 km/h (3 Bft)
23.02.2012 22:49 5,9 C 6,7 C 5,6 C 5,4 C 3,8 C 0,0 C 87 % 89 % 0 % 1023,4 hPa 0,0 l/m 9,0 km/h (2 Bft) NW 315 0 min 0,0 UV-I 3,9 C 1,5 C 6,1 km/h (2 Bft)
23.02.2012 22:54 5,9 C 6,6 C 5,6 C 5,5 C 4,2 C 0,0 C 87 % 89 % 0 % 1023,4 hPa 0,0 l/m 8,0 km/h (2 Bft) SW 225 0 min 0,0 UV-I 3,9 C 2,2 C 10,3 km/h (2 Bft)
23.02.2012 22:59 5,9 C 6,5 C 5,6 C 5,3 C 4,2 C 0,0 C 87 % 89 % 0 % 1023,2 hPa 0,0 l/m 8,5 km/h (2 Bft) W-SW 247 0 min 0,0 UV-I 3,9 C 2,1 C 18,7 km/h (3 Bft)
23.02.2012 23:04 6,0 C 6,6 C 5,7 C 5,6 C 3,8 C 0,0 C 86 % 89 % 0 % 1023,2 hPa 0,0 l/m 10,1 km/h (2 Bft) W 270 0 min 0,0 UV-I 3,8 C 1,2 C 14,5 km/h (3 Bft)
23.02.2012 23:09 6,1 C 6,6 C 5,7 C 5,6 C 3,7 C 0,0 C 86 % 89 % 0 % 1023,2 hPa 0,0 l/m 10,9 km/h (2 Bft) W-SW 247 0 min 0,0 UV-I 3,9 C 0,9 C 11,6 km/h (2 Bft)
23.02.2012 23:14 6,0 C 6,6 C 5,6 C 5,2 C 3,7 C 0,0 C 86 % 89 % 0 % 1023,2 hPa 0,0 l/m 10,9 km/h (2 Bft) W-SW 247 0 min 0,0 UV-I 3,8 C 0,9 C 13,5 km/h (3 Bft)
23.02.2012 23:19 5,9 C 6,6 C 5,6 C 5,4 C 3,9 C 0,0 C 87 % 89 % 0 % 1023,8 hPa 0,0 l/m 9,8 km/h (2 Bft) W-SW 247 0 min 0,0 UV-I 3,9 C 1,4 C 16,7 km/h (3 Bft)
23.02.2012 23:24 5,9 C 6,6 C 5,7 C 5,4 C 3,8 C 0,0 C 87 % 89 % 0 % 1023,8 hPa 0,0 l/m 9,8 km/h (2 Bft) W-SW 247 0 min 0,0 UV-I 3,9 C 1,3 C 14,0 km/h (3 Bft)
23.02.2012 23:29 5,9 C 6,6 C 5,7 C 5,4 C 3,7 C 0,0 C 87 % 89 % 0 % 1023,8 hPa 0,0 l/m 10,3 km/h (2 Bft) W-SW 247 0 min 0,0 UV-I 3,9 C 1,0 C 12,6 km/h (3 Bft)
23.02.2012 23:34 5,9 C 6,6 C 5,6 C 5,2 C 3,7 C 0,0 C 87 % 89 % 0 % 1023,8 hPa 0,0 l/m 10,9 km/h (2 Bft) W-SW 247 0 min 0,0 UV-I 3,9 C 0,9 C 19,0 km/h (3 Bft)
23.02.2012 23:39 5,9 C 6,6 C 5,6 C 5,4 C 3,6 C 0,0 C 87 % 89 % 0 % 1023,7 hPa 0,0 l/m 11,3 km/h (2 Bft) O 90 0 min 0,0 UV-I 3,9 C 0,7 C 11,7 km/h (2 Bft)
23.02.2012 23:44 5,9 C 6,6 C 5,7 C 5,4 C 3,7 C 0,0 C 87 % 89 % 0 % 1023,7 hPa 0,0 l/m 10,6 km/h (2 Bft) SW 225 0 min 0,0 UV-I 3,9 C 1,0 C 17,2 km/h (3 Bft)
23.02.2012 23:49 6,0 C 6,6 C 5,7 C 5,5 C 3,8 C 0,0 C 87 % 89 % 0 % 1023,7 hPa 0,0 l/m 10,5 km/h (2 Bft) S-SW 202 0 min 0,0 UV-I 4,0 C 1,1 C 9,8 km/h (2 Bft)
23.02.2012 23:54 6,0 C 6,6 C 5,8 C 5,5 C 3,6 C 0,0 C 87 % 89 % 0 % 1023,7 hPa 0,0 l/m 11,3 km/h (2 Bft) W-SW 247 0 min 0,0 UV-I 4,0 C 0,7 C 18,8 km/h (3 Bft)
23.02.2012 23:59 6,0 C 6,6 C 5,9 C 5,2 C 3,6 C 0,0 C 87 % 89 % 0 % 1023,7 hPa 0,0 l/m 12,6 km/h (3 Bft) W-SW 247 0 min 0,0 UV-I 4,0 C 0,4 C 17,1 km/h (3 Bft)
_ Min-Zeit 05:05 01:59 05:05 05:05 08:04 00:04 03:24 03:24 00:04 03:59 - 19:29 - - - 00:04 03:24 08:04 19:34
Minimum _ 4,2 C 6,0 C 2,8 C 3,4 C 1,1 C 0,0 C 53 % 57 % 0 % 1019,6 hPa - 3,2 km/h (1 Bft) - - - 0,0 UV-I -2,7 C -2,8 C 2,7 km/h (1 Bft)
_ Max-Zeit 16:14 22:29 16:19 18:09 19:24 19:24 22:34 22:24 00:04 19:19 04:24 08:49 - - 00:04 00:04 17:34 19:24 09:44
Maximum _ 8,0 C 6,7 C 7,9 C 7,8 C 7,3 C 0,1 C 87 % 89 % 0 % 1024,0 hPa 0,7 l/m 15,8 km/h
W-SW (3 Bft)
- - 0 min 0,0 UV-I 5,2 C 7,3 C 26,1 km/h
W-SW (4 Bft)
Durchschnitt _ 6,1 C 6,2 C 5,7 C 5,6 C 4,2 C 0,0 C 76 % 81 % 0 % 1021,8 hPa #1,4 l/m 9,9 km/h (2 Bft) W-SW - #0 min. 0,0 UV-I 2,1 C 1,8 C 12,4 km/h (3 Bft)
2012 www.wetterstation-wechselburg.de